Time,TemperatureF,DewpointF,PressureIn,WindDirection,WindDirectionDegrees,WindSpeedMPH,WindSpeedGustMPH,Humidity,HourlyPrecipIn,Conditions,Clouds,dailyrainin,SoftwareType,DateUTC
2013-03-08 00:01:00,62.0,29.3,29.83,South,178,0.0,1.0,29,0.00,,,0.00,Wunderground v.1.15,2013-03-08 07:01:00,
2013-03-08 00:07:00,61.6,29.0,29.83,South,178,0.0,1.0,29,0.00,,,0.00,Wunderground v.1.15,2013-03-08 07:07:00,
2013-03-08 00:12:00,62.1,29.4,29.83,South,178,0.0,1.0,29,0.00,,,0.00,Wunderground v.1.15,2013-03-08 07:12:00,
2013-03-08 00:17:00,62.6,29.9,29.83,WSW,252,0.0,1.0,29,0.00,,,0.00,Wunderground v.1.15,2013-03-08 07:17:00,
2013-03-08 00:22:00,63.2,30.4,29.83,West,262,2.0,2.0,29,0.00,,,0.00,Wunderground v.1.15,2013-03-08 07:22:00,
2013-03-08 00:27:00,63.9,30.1,29.83,WSW,240,0.0,2.0,28,0.00,,,0.00,Wunderground v.1.15,2013-03-08 07:27:00,
2013-03-08 00:33:00,63.8,30.0,29.83,WSW,240,1.0,2.0,28,0.00,,,0.00,Wunderground v.1.15,2013-03-08 07:33:00,
2013-03-08 00:39:00,63.6,30.7,29.82,WSW,240,0.0,1.0,29,0.00,,,0.00,Wunderground v.1.15,2013-03-08 07:39:00,
2013-03-08 00:44:00,63.4,30.6,29.83,South,173,0.0,0.0,29,0.00,,,0.00,Wunderground v.1.15,2013-03-08 07:44:00,
2013-03-08 00:50:00,63.9,31.0,29.83,West,264,4.0,4.0,29,0.00,,,0.00,Wunderground v.1.15,2013-03-08 07:50:00,
2013-03-08 00:56:00,64.1,31.2,29.83,South,174,0.0,2.0,29,0.00,,,0.00,Wunderground v.1.15,2013-03-08 07:56:00,
2013-03-08 01:02:00,64.3,31.3,29.83,South,184,2.0,2.0,29,0.00,,,0.00,Wunderground v.1.15,2013-03-08 08:02:00,
2013-03-08 01:07:00,64.6,31.6,29.83,South,183,3.0,4.0,29,0.00,,,0.00,Wunderground v.1.15,2013-03-08 08:07:00,
2013-03-08 01:13:00,64.6,31.6,29.82,SE,130,8.0,8.0,29,0.00,,,0.00,Wunderground v.1.15,2013-03-08 08:13:00,
2013-03-08 01:19:00,64.7,31.7,29.82,South,171,1.0,5.0,29,0.00,,,0.00,Wunderground v.1.15,2013-03-08 08:19:00,
2013-03-08 01:24:00,64.8,31.8,29.82,South,184,1.0,4.0,29,0.00,,,0.00,Wunderground v.1.15,2013-03-08 08:24:00,
2013-03-08 01:30:00,64.7,31.7,29.82,WSW,257,2.0,6.0,29,0.00,,,0.00,Wunderground v.1.15,2013-03-08 08:30:00,
2013-03-08 01:36:00,64.5,30.6,29.82,South,183,2.0,2.0,28,0.00,,,0.00,Wunderground v.1.15,2013-03-08 08:36:00,
2013-03-08 01:41:00,64.5,30.6,29.82,South,188,3.0,6.0,28,0.00,,,0.00,Wunderground v.1.15,2013-03-08 08:41:00,
2013-03-08 01:46:00,64.6,30.7,29.82,South,178,2.0,6.0,28,0.00,,,0.00,Wunderground v.1.15,2013-03-08 08:46:00,
2013-03-08 01:52:00,64.6,30.7,29.81,South,174,0.0,6.0,28,0.00,,,0.00,Wunderground v.1.15,2013-03-08 08:52:00,
2013-03-08 01:57:00,64.3,31.3,29.81,SSE,167,1.0,3.0,29,0.00,,,0.00,Wunderground v.1.15,2013-03-08 08:57:00,
2013-03-08 02:02:00,64.3,32.2,29.81,South,177,1.0,3.0,30,0.00,,,0.00,Wunderground v.1.15,2013-03-08 09:02:00,
2013-03-08 02:08:00,64.6,32.4,29.81,SSE,167,4.0,4.0,30,0.00,,,0.00,Wunderground v.1.15,2013-03-08 09:08:00,
2013-03-08 02:13:00,64.9,31.9,29.81,SE,142,3.0,9.0,29,0.00,,,0.00,Wunderground v.1.15,2013-03-08 09:13:00,
2013-03-08 02:18:00,65.0,31.9,29.80,North,360,5.0,9.0,29,0.00,,,0.00,Wunderground v.1.15,2013-03-08 09:18:00,
2013-03-08 02:23:00,65.0,31.9,29.80,SE,146,0.0,10.0,29,0.00,,,0.00,Wunderground v.1.15,2013-03-08 09:23:00,
2013-03-08 02:28:00,64.8,31.8,29.80,West,259,9.0,9.0,29,0.00,,,0.00,Wunderground v.1.15,2013-03-08 09:28:00,
2013-03-08 02:33:00,64.7,31.7,29.80,South,180,0.0,16.0,29,0.00,,,0.00,Wunderground v.1.15,2013-03-08 09:33:00,
2013-03-08 02:39:00,64.5,31.5,29.79,SSW,195,3.0,6.0,29,0.00,,,0.00,Wunderground v.1.15,2013-03-08 09:39:00,
2013-03-08 02:44:00,64.5,31.5,29.79,WSW,244,1.0,6.0,29,0.00,,,0.00,Wunderground v.1.15,2013-03-08 09:44:00,
2013-03-08 02:49:00,64.6,30.7,29.79,South,180,7.0,7.0,28,0.00,,,0.00,Wunderground v.1.15,2013-03-08 09:49:00,
2013-03-08 02:54:00,64.6,30.7,29.80,SE,142,3.0,10.0,28,0.00,,,0.00,Wunderground v.1.15,2013-03-08 09:54:00,
2013-03-08 02:59:00,64.5,31.5,29.78,South,182,5.0,8.0,29,0.00,,,0.00,Wunderground v.1.15,2013-03-08 09:59:00,
2013-03-08 03:04:00,64.4,31.4,29.78,South,172,4.0,8.0,29,0.00,,,0.00,Wunderground v.1.15,2013-03-08 10:04:00,
2013-03-08 03:09:00,64.3,31.3,29.78,South,191,9.0,9.0,29,0.00,,,0.00,Wunderground v.1.15,2013-03-08 10:09:00,
2013-03-08 03:14:00,64.1,31.2,29.77,SSE,159,0.0,5.0,29,0.00,,,0.00,Wunderground v.1.15,2013-03-08 10:14:00,
2013-03-08 03:19:00,63.7,30.8,29.77,SSE,163,2.0,5.0,29,0.00,,,0.00,Wunderground v.1.15,2013-03-08 10:19:00,
2013-03-08 03:24:00,63.5,30.6,29.77,SE,131,3.0,3.0,29,0.00,,,0.00,Wunderground v.1.15,2013-03-08 10:24:00,
2013-03-08 03:29:00,63.3,30.5,29.77,SE,129,6.0,6.0,29,0.00,,,0.00,Wunderground v.1.15,2013-03-08 10:29:00,
2013-03-08 03:34:00,63.2,30.4,29.77,SE,146,1.0,2.0,29,0.00,,,0.00,Wunderground v.1.15,2013-03-08 10:34:00,
2013-03-08 03:39:00,63.1,30.3,29.78,SE,142,1.0,5.0,29,0.00,,,0.00,Wunderground v.1.15,2013-03-08 10:39:00,
2013-03-08 03:45:00,62.8,30.9,29.78,South,180,3.0,4.0,30,0.00,,,0.00,Wunderground v.1.15,2013-03-08 10:45:00,
2013-03-08 03:50:00,63.1,31.9,29.77,SSE,157,4.0,9.0,31,0.00,,,0.00,Wunderground v.1.15,2013-03-08 10:50:00,
2013-03-08 03:55:00,63.3,34.4,29.76,SSE,167,10.0,10.0,34,0.00,,,0.00,Wunderground v.1.15,2013-03-08 10:55:00,
2013-03-08 04:00:00,63.2,35.1,29.76,SE,136,2.0,11.0,35,0.00,,,0.00,Wunderground v.1.15,2013-03-08 11:00:00,
2013-03-08 04:05:00,62.8,36.8,29.76,South,169,4.0,7.0,38,0.00,,,0.00,Wunderground v.1.15,2013-03-08 11:05:00,
2013-03-08 04:10:00,62.3,37.0,29.76,South,169,6.0,8.0,39,0.00,,,0.00,Wunderground v.1.15,2013-03-08 11:10:00,
2013-03-08 04:16:00,62.0,37.4,29.76,SSE,166,9.0,9.0,40,0.00,,,0.00,Wunderground v.1.15,2013-03-08 11:16:00,
2013-03-08 04:21:00,61.8,37.2,29.76,ESE,123,5.0,11.0,40,0.00,,,0.00,Wunderground v.1.15,2013-03-08 11:21:00,
2013-03-08 04:26:00,61.6,37.0,29.76,SSE,149,3.0,7.0,40,0.00,,,0.00,Wunderground v.1.15,2013-03-08 11:26:00,
2013-03-08 04:31:00,61.6,37.0,29.76,South,181,5.0,7.0,40,0.00,,,0.00,Wunderground v.1.15,2013-03-08 11:31:00,
2013-03-08 04:36:00,61.6,36.4,29.76,South,171,3.0,7.0,39,0.00,,,0.00,Wunderground v.1.15,2013-03-08 11:36:00,
2013-03-08 04:41:00,61.5,36.3,29.76,South,170,5.0,10.0,39,0.00,,,0.00,Wunderground v.1.15,2013-03-08 11:41:00,
2013-03-08 04:46:00,61.4,36.8,29.75,SSE,161,3.0,7.0,40,0.00,,,0.00,Wunderground v.1.15,2013-03-08 11:46:00,
2013-03-08 04:51:00,61.2,36.7,29.75,South,180,4.0,7.0,40,0.00,,,0.00,Wunderground v.1.15,2013-03-08 11:51:00,
2013-03-08 04:56:00,60.7,36.8,29.76,South,171,2.0,4.0,41,0.00,,,0.00,Wunderground v.1.15,2013-03-08 11:56:00,
2013-03-08 05:01:00,60.5,36.7,29.76,SSE,156,2.0,4.0,41,0.00,,,0.00,Wunderground v.1.15,2013-03-08 12:01:00,
2013-03-08 05:07:00,60.3,37.1,29.76,SSE,162,0.0,2.0,42,0.00,,,0.00,Wunderground v.1.15,2013-03-08 12:07:00,
2013-03-08 05:12:00,60.3,37.1,29.76,SE,132,1.0,3.0,42,0.00,,,0.00,Wunderground v.1.15,2013-03-08 12:12:00,
2013-03-08 05:17:00,60.4,36.6,29.76,SSE,167,1.0,2.0,41,0.00,,,0.00,Wunderground v.1.15,2013-03-08 12:17:00,
2013-03-08 05:22:00,60.5,36.7,29.76,SE,136,2.0,3.0,41,0.00,,,0.00,Wunderground v.1.15,2013-03-08 12:22:00,
2013-03-08 05:27:00,60.3,36.5,29.76,SSE,167,0.0,1.0,41,0.00,,,0.00,Wunderground v.1.15,2013-03-08 12:27:00,
2013-03-08 05:32:00,60.2,36.4,29.76,SE,146,0.0,4.0,41,0.00,,,0.00,Wunderground v.1.15,2013-03-08 12:32:00,
2013-03-08 05:37:00,60.3,36.5,29.76,SSE,167,2.0,3.0,41,0.00,,,0.00,Wunderground v.1.15,2013-03-08 12:37:00,
2013-03-08 05:42:00,60.8,36.3,29.76,SE,136,4.0,5.0,40,0.00,,,0.00,Wunderground v.1.15,2013-03-08 12:42:00,
2013-03-08 05:47:00,61.4,36.2,29.77,SSE,150,4.0,6.0,39,0.00,,,0.00,Wunderground v.1.15,2013-03-08 12:47:00,
2013-03-08 05:53:00,61.6,36.4,29.77,SSE,159,1.0,6.0,39,0.00,,,0.00,Wunderground v.1.15,2013-03-08 12:53:00,
2013-03-08 05:58:00,61.6,36.4,29.77,SE,144,3.0,6.0,39,0.00,,,0.00,Wunderground v.1.15,2013-03-08 12:58:00,
2013-03-08 06:03:00,61.5,36.3,29.77,SSE,149,1.0,6.0,39,0.00,,,0.00,Wunderground v.1.15,2013-03-08 13:03:00,
2013-03-08 06:08:00,61.7,36.5,29.76,SSE,155,1.0,5.0,39,0.00,,,0.00,Wunderground v.1.15,2013-03-08 13:08:00,
2013-03-08 06:13:00,61.6,36.4,29.76,ESE,121,2.0,7.0,39,0.00,,,0.00,Wunderground v.1.15,2013-03-08 13:13:00,
2013-03-08 06:18:00,61.6,36.4,29.76,SE,131,3.0,10.0,39,0.00,,,0.00,Wunderground v.1.15,2013-03-08 13:18:00,
2013-03-08 06:24:00,61.7,36.5,29.76,South,186,4.0,12.0,39,0.00,,,0.00,Wunderground v.1.15,2013-03-08 13:24:00,
2013-03-08 06:29:00,61.9,36.7,29.76,SSE,159,3.0,9.0,39,0.00,,,0.00,Wunderground v.1.15,2013-03-08 13:29:00,
2013-03-08 06:34:00,61.8,36.6,29.77,South,172,3.0,4.0,39,0.00,,,0.00,Wunderground v.1.15,2013-03-08 13:34:00,
2013-03-08 06:39:00,62.0,36.7,29.77,South,175,2.0,15.0,39,0.00,,,0.00,Wunderground v.1.15,2013-03-08 13:39:00,
2013-03-08 06:44:00,62.0,36.7,29.77,South,180,1.0,4.0,39,0.00,,,0.00,Wunderground v.1.15,2013-03-08 13:44:00,
2013-03-08 06:50:00,61.9,36.7,29.77,SSE,161,6.0,6.0,39,0.00,,,0.00,Wunderground v.1.15,2013-03-08 13:50:00,
2013-03-08 06:55:00,61.7,36.5,29.77,South,190,7.0,7.0,39,0.00,,,0.00,Wunderground v.1.15,2013-03-08 13:55:00,
2013-03-08 07:00:00,61.6,37.0,29.77,South,177,2.0,8.0,40,0.00,,,0.00,Wunderground v.1.15,2013-03-08 14:00:00,
2013-03-08 07:05:00,61.2,37.3,29.77,SSE,149,1.0,3.0,41,0.00,,,0.00,Wunderground v.1.15,2013-03-08 14:05:00,
2013-03-08 07:10:00,60.8,37.5,29.77,SE,133,6.0,6.0,42,0.00,,,0.00,Wunderground v.1.15,2013-03-08 14:10:00,
2013-03-08 07:15:00,60.8,37.5,29.77,SE,129,3.0,4.0,42,0.00,,,0.00,Wunderground v.1.15,2013-03-08 14:15:00,
2013-03-08 07:20:00,60.8,38.1,29.77,SSW,193,4.0,6.0,43,0.00,,,0.00,Wunderground v.1.15,2013-03-08 14:20:00,
2013-03-08 07:26:00,60.7,38.1,29.77,South,170,9.0,9.0,43,0.00,,,0.00,Wunderground v.1.15,2013-03-08 14:26:00,
2013-03-08 07:31:00,60.8,38.7,29.77,SSE,160,3.0,9.0,44,0.00,,,0.00,Wunderground v.1.15,2013-03-08 14:31:00,
2013-03-08 07:36:00,60.7,38.6,29.77,SSE,164,6.0,10.0,44,0.00,,,0.00,Wunderground v.1.15,2013-03-08 14:36:00,
2013-03-08 07:41:00,60.5,39.0,29.78,South,170,1.0,11.0,45,0.00,,,0.00,Wunderground v.1.15,2013-03-08 14:41:00,
2013-03-08 07:47:00,60.4,38.9,29.78,ESE,118,9.0,12.0,45,0.00,,,0.00,Wunderground v.1.15,2013-03-08 14:47:00,
2013-03-08 07:52:00,60.3,38.9,29.78,SE,133,6.0,12.0,45,0.00,,,0.00,Wunderground v.1.15,2013-03-08 14:52:00,
2013-03-08 07:57:00,60.3,38.9,29.78,South,175,7.0,10.0,45,0.00,,,0.00,Wunderground v.1.15,2013-03-08 14:57:00,
2013-03-08 08:02:00,61.0,40.1,29.78,SSE,168,4.0,11.0,46,0.00,,,0.00,Wunderground v.1.15,2013-03-08 15:02:00,
2013-03-08 08:07:00,61.9,40.3,29.78,South,175,2.0,6.0,45,0.00,,,0.00,Wunderground v.1.15,2013-03-08 15:07:00,
2013-03-08 08:12:00,60.9,42.6,29.78,SE,138,3.0,6.0,51,0.00,,,0.00,Wunderground v.1.15,2013-03-08 15:12:00,
2013-03-08 08:18:00,59.9,42.2,29.77,SE,144,3.0,8.0,52,0.00,,,0.00,Wunderground v.1.15,2013-03-08 15:18:00,
2013-03-08 08:23:00,59.8,41.1,29.77,SSE,158,6.0,10.0,50,0.00,,,0.00,Wunderground v.1.15,2013-03-08 15:23:00,
2013-03-08 08:28:00,60.3,40.5,29.77,South,171,3.0,10.0,48,0.00,,,0.00,Wunderground v.1.15,2013-03-08 15:28:00,
2013-03-08 08:33:00,61.1,41.2,29.76,SSE,154,4.0,10.0,48,0.00,,,0.00,Wunderground v.1.15,2013-03-08 15:33:00,
2013-03-08 08:38:00,62.3,41.8,29.76,SSE,151,8.0,8.0,47,0.00,,,0.00,Wunderground v.1.15,2013-03-08 15:38:00,
2013-03-08 08:43:00,62.2,41.2,29.76,SE,132,8.0,10.0,46,0.00,,,0.00,Wunderground v.1.15,2013-03-08 15:43:00,
2013-03-08 08:48:00,62.6,41.5,29.76,SSE,149,8.0,11.0,46,0.00,,,0.00,Wunderground v.1.15,2013-03-08 15:48:00,
2013-03-08 08:53:00,63.5,41.8,29.76,SSE,148,5.0,11.0,45,0.00,,,0.00,Wunderground v.1.15,2013-03-08 15:53:00,
2013-03-08 08:58:00,64.2,41.8,29.76,SSE,165,3.0,9.0,44,0.00,,,0.00,Wunderground v.1.15,2013-03-08 15:58:00,
2013-03-08 09:04:00,65.1,41.4,29.76,South,173,4.0,12.0,42,0.00,,,0.00,Wunderground v.1.15,2013-03-08 16:04:00,
2013-03-08 09:09:00,64.6,41.0,29.76,SE,138,4.0,13.0,42,0.00,,,0.00,Wunderground v.1.15,2013-03-08 16:09:00,
2013-03-08 09:14:00,63.8,40.9,29.76,SSE,162,6.0,7.0,43,0.00,,,0.00,Wunderground v.1.15,2013-03-08 16:14:00,
2013-03-08 09:19:00,63.0,40.7,29.76,South,173,6.0,11.0,44,0.00,,,0.00,Wunderground v.1.15,2013-03-08 16:19:00,
2013-03-08 09:24:00,62.7,41.0,29.75,SE,128,3.0,7.0,45,0.00,,,0.00,Wunderground v.1.15,2013-03-08 16:24:00,
2013-03-08 09:29:00,62.7,41.0,29.76,SSE,148,10.0,13.0,45,0.00,,,0.00,Wunderground v.1.15,2013-03-08 16:29:00,
2013-03-08 09:35:00,62.5,40.9,29.75,SSE,153,4.0,6.0,45,0.00,,,0.00,Wunderground v.1.15,2013-03-08 16:35:00,
2013-03-08 09:40:00,62.5,41.4,29.76,South,174,12.0,13.0,46,0.00,,,0.00,Wunderground v.1.15,2013-03-08 16:40:00,
2013-03-08 09:45:00,62.4,41.3,29.76,SSW,205,11.0,11.0,46,0.00,,,0.00,Wunderground v.1.15,2013-03-08 16:45:00,
2013-03-08 09:50:00,62.5,41.4,29.76,WSW,244,5.0,11.0,46,0.00,,,0.00,Wunderground v.1.15,2013-03-08 16:50:00,
2013-03-08 09:56:00,62.6,42.6,29.76,WSW,254,6.0,7.0,48,0.00,,,0.00,Wunderground v.1.15,2013-03-08 16:56:00,
2013-03-08 10:01:00,61.9,43.0,29.77,West,268,7.0,13.0,50,0.00,,,0.00,Wunderground v.1.15,2013-03-08 17:01:00,
2013-03-08 10:06:00,61.5,44.2,29.77,West,268,8.0,10.0,53,0.00,,,0.00,Wunderground v.1.15,2013-03-08 17:06:00,
2013-03-08 10:11:00,61.2,43.4,29.77,West,267,9.0,10.0,52,0.00,,,0.00,Wunderground v.1.15,2013-03-08 17:11:00,
2013-03-08 10:17:00,60.9,42.6,29.77,SW,236,6.0,9.0,51,0.00,,,0.00,Wunderground v.1.15,2013-03-08 17:17:00,
2013-03-08 10:22:00,60.5,43.3,29.77,WSW,257,7.0,11.0,53,0.00,,,0.00,Wunderground v.1.15,2013-03-08 17:22:00,
2013-03-08 10:27:00,60.2,43.5,29.77,West,274,11.0,12.0,54,0.00,,,0.00,Wunderground v.1.15,2013-03-08 17:27:00,
2013-03-08 10:33:00,60.4,49.0,29.77,WNW,290,9.0,12.0,66,0.00,,,0.00,Wunderground v.1.15,2013-03-08 17:33:00,
2013-03-08 10:38:00,60.1,48.7,29.77,West,273,5.0,11.0,66,0.00,,,0.00,Wunderground v.1.15,2013-03-08 17:38:00,
2013-03-08 10:43:00,59.9,48.5,29.78,West,275,3.0,12.0,66,0.00,,,0.00,Wunderground v.1.15,2013-03-08 17:43:00,
2013-03-08 10:48:00,60.4,48.2,29.77,West,277,7.0,10.0,64,0.00,,,0.00,Wunderground v.1.15,2013-03-08 17:48:00,
2013-03-08 10:53:00,60.6,48.4,29.77,WNW,290,7.0,10.0,64,0.00,,,0.00,Wunderground v.1.15,2013-03-08 17:53:00,
2013-03-08 10:58:00,61.0,48.3,29.77,West,271,5.0,10.0,63,0.00,,,0.00,Wunderground v.1.15,2013-03-08 17:58:00,
2013-03-08 11:04:00,61.6,48.4,29.77,West,261,4.0,10.0,62,0.00,,,0.00,Wunderground v.1.15,2013-03-08 18:04:00,
2013-03-08 11:09:00,61.8,47.8,29.76,WSW,252,7.0,10.0,60,0.00,,,0.00,Wunderground v.1.15,2013-03-08 18:09:00,
2013-03-08 11:14:00,61.1,48.4,29.76,West,263,2.0,10.0,63,0.00,,,0.00,Wunderground v.1.15,2013-03-08 18:14:00,
2013-03-08 11:19:00,61.0,47.4,29.76,WSW,257,5.0,10.0,61,0.00,,,0.00,Wunderground v.1.15,2013-03-08 18:19:00,
2013-03-08 11:24:00,61.2,48.5,29.76,West,268,2.0,5.0,63,0.00,,,0.00,Wunderground v.1.15,2013-03-08 18:24:00,
2013-03-08 11:29:00,63.1,48.1,29.76,SW,225,3.0,8.0,58,0.00,,,0.00,Wunderground v.1.15,2013-03-08 18:29:00,
2013-03-08 11:35:00,64.0,45.5,29.76,West,260,1.0,4.0,51,0.00,,,0.00,Wunderground v.1.15,2013-03-08 18:35:00,
2013-03-08 11:40:00,65.0,46.9,29.75,NNW,336,8.0,13.0,52,0.00,,,0.00,Wunderground v.1.15,2013-03-08 18:40:00,
2013-03-08 11:45:00,64.2,46.7,29.76,South,181,5.0,6.0,53,0.00,,,0.00,Wunderground v.1.15,2013-03-08 18:45:00,
2013-03-08 11:50:00,62.7,46.8,29.75,NNW,334,6.0,9.0,56,0.00,,,0.00,Wunderground v.1.15,2013-03-08 18:50:00,
2013-03-08 11:55:00,61.8,46.4,29.74,WNW,286,13.0,15.0,57,0.00,,,0.00,Wunderground v.1.15,2013-03-08 18:55:00,
2013-03-08 12:00:00,64.8,43.5,29.74,South,187,10.0,15.0,46,0.00,,,0.00,Wunderground v.1.15,2013-03-08 19:00:00,
2013-03-08 12:05:00,65.6,43.7,29.74,SW,225,7.0,8.0,45,0.00,,,0.00,Wunderground v.1.15,2013-03-08 19:05:00,
2013-03-08 12:10:00,64.7,42.9,29.75,SSE,165,5.0,11.0,45,0.00,,,0.00,Wunderground v.1.15,2013-03-08 19:10:00,
2013-03-08 12:15:00,63.6,43.0,29.75,West,269,7.0,10.0,47,0.00,,,0.00,Wunderground v.1.15,2013-03-08 19:15:00,
2013-03-08 12:20:00,62.6,43.7,29.75,WSW,256,7.0,13.0,50,0.00,,,0.00,Wunderground v.1.15,2013-03-08 19:20:00,
2013-03-08 12:25:00,61.9,43.0,29.74,WSW,255,6.0,10.0,50,0.00,,,0.00,Wunderground v.1.15,2013-03-08 19:25:00,
2013-03-08 12:31:00,63.6,43.0,29.74,WNW,282,2.0,11.0,47,0.00,,,0.00,Wunderground v.1.15,2013-03-08 19:31:00,
2013-03-08 12:36:00,63.1,43.1,29.74,WNW,288,0.0,7.0,48,0.00,,,0.00,Wunderground v.1.15,2013-03-08 19:36:00,
2013-03-08 12:41:00,64.2,44.6,29.73,SSE,161,3.0,7.0,49,0.00,,,0.00,Wunderground v.1.15,2013-03-08 19:41:00,
2013-03-08 12:46:00,63.6,43.0,29.73,SSW,211,3.0,7.0,47,0.00,,,0.00,Wunderground v.1.15,2013-03-08 19:46:00,
2013-03-08 12:51:00,62.7,43.8,29.73,NW,307,5.0,8.0,50,0.00,,,0.00,Wunderground v.1.15,2013-03-08 19:51:00,
2013-03-08 12:56:00,62.7,46.3,29.73,WNW,284,8.0,13.0,55,0.00,,,0.00,Wunderground v.1.15,2013-03-08 19:56:00,
2013-03-08 13:01:00,63.0,46.6,29.72,WNW,282,8.0,13.0,55,0.00,,,0.00,Wunderground v.1.15,2013-03-08 20:01:00,
2013-03-08 13:07:00,63.2,44.2,29.72,SSE,150,3.0,25.0,50,0.00,,,0.00,Wunderground v.1.15,2013-03-08 20:07:00,
2013-03-08 13:12:00,63.6,43.5,29.72,SSE,167,14.0,25.0,48,0.00,,,0.00,Wunderground v.1.15,2013-03-08 20:12:00,
2013-03-08 13:17:00,64.6,43.9,29.71,SSE,166,17.0,17.0,47,0.00,,,0.00,Wunderground v.1.15,2013-03-08 20:17:00,
2013-03-08 13:22:00,64.5,42.7,29.72,SW,217,6.0,21.0,45,0.00,,,0.00,Wunderground v.1.15,2013-03-08 20:22:00,
2013-03-08 13:27:00,64.1,42.3,29.71,South,177,7.0,14.0,45,0.00,,,0.00,Wunderground v.1.15,2013-03-08 20:27:00,
2013-03-08 13:32:00,64.7,42.3,29.71,South,185,15.0,19.0,44,0.00,,,0.00,Wunderground v.1.15,2013-03-08 20:32:00,
2013-03-08 13:37:00,64.5,42.1,29.70,South,189,10.0,15.0,44,0.00,,,0.00,Wunderground v.1.15,2013-03-08 20:37:00,
2013-03-08 13:42:00,64.4,42.0,29.70,SW,223,6.0,17.0,44,0.00,,,0.00,Wunderground v.1.15,2013-03-08 20:42:00,
2013-03-08 13:48:00,64.8,42.4,29.69,SSE,167,17.0,17.0,44,0.00,,,0.00,Wunderground v.1.15,2013-03-08 20:48:00,
2013-03-08 13:53:00,63.9,41.5,29.69,SSE,161,4.0,18.0,44,0.00,,,0.00,Wunderground v.1.15,2013-03-08 20:53:00,
2013-03-08 13:58:00,63.7,41.4,29.69,South,175,12.0,19.0,44,0.00,,,0.00,Wunderground v.1.15,2013-03-08 20:58:00,
2013-03-08 14:04:00,63.6,41.3,29.69,West,263,9.0,19.0,44,0.00,,,0.00,Wunderground v.1.15,2013-03-08 21:04:00,
2013-03-08 14:09:00,63.9,40.3,29.69,SW,229,5.0,10.0,42,0.00,,,0.00,Wunderground v.1.15,2013-03-08 21:09:00,
2013-03-08 14:14:00,63.8,39.6,29.70,South,189,20.0,20.0,41,0.00,,,0.00,Wunderground v.1.15,2013-03-08 21:14:00,
2013-03-08 14:19:00,61.8,43.0,29.72,WNW,283,14.0,24.0,50,0.00,,,0.00,Wunderground v.1.15,2013-03-08 21:19:00,
2013-03-08 14:24:00,58.3,44.0,29.72,West,266,21.0,21.0,59,0.00,,,0.00,Wunderground v.1.15,2013-03-08 21:24:00,
2013-03-08 14:29:00,56.3,44.7,29.74,West,273,17.0,23.0,65,0.00,,,0.01,Wunderground v.1.15,2013-03-08 21:29:00,
2013-03-08 14:34:00,55.2,45.2,29.73,SW,236,9.0,13.0,69,0.00,,,0.01,Wunderground v.1.15,2013-03-08 21:34:00,
2013-03-08 14:39:00,55.7,45.3,29.73,SSE,161,7.0,14.0,68,0.00,,,0.01,Wunderground v.1.15,2013-03-08 21:39:00,
2013-03-08 14:44:00,55.9,44.3,29.72,SW,222,9.0,27.0,65,0.00,,,0.01,Wunderground v.1.15,2013-03-08 21:44:00,
2013-03-08 14:50:00,56.3,43.4,29.73,West,265,10.0,27.0,62,0.00,,,0.01,Wunderground v.1.15,2013-03-08 21:50:00,
2013-03-08 14:55:00,56.8,43.5,29.73,SSE,147,5.0,11.0,61,0.00,,,0.01,Wunderground v.1.15,2013-03-08 21:55:00,
2013-03-08 15:00:00,56.9,42.7,29.73,West,268,3.0,21.0,59,0.00,,,0.01,Wunderground v.1.15,2013-03-08 22:00:00,
2013-03-08 15:05:00,57.5,43.3,29.73,West,269,4.0,9.0,59,0.00,,,0.01,Wunderground v.1.15,2013-03-08 22:05:00,
2013-03-08 15:11:00,58.5,41.9,29.74,WSW,251,9.0,21.0,54,0.00,,,0.01,Wunderground v.1.15,2013-03-08 22:11:00,
2013-03-08 15:16:00,59.2,41.6,29.74,WSW,252,11.0,18.0,52,0.00,,,0.01,Wunderground v.1.15,2013-03-08 22:16:00,
2013-03-08 15:21:00,58.3,40.7,29.73,South,178,8.0,21.0,52,0.00,,,0.01,Wunderground v.1.15,2013-03-08 22:21:00,
2013-03-08 15:26:00,58.1,41.0,29.74,SW,223,3.0,10.0,53,0.00,,,0.01,Wunderground v.1.15,2013-03-08 22:26:00,
2013-03-08 15:31:00,58.2,41.1,29.74,WSW,244,6.0,10.0,53,0.00,,,0.01,Wunderground v.1.15,2013-03-08 22:31:00,
2013-03-08 15:36:00,58.4,41.3,29.75,West,275,9.0,12.0,53,0.00,,,0.01,Wunderground v.1.15,2013-03-08 22:36:00,
2013-03-08 15:42:00,58.7,41.6,29.75,SSW,198,5.0,12.0,53,0.00,,,0.01,Wunderground v.1.15,2013-03-08 22:42:00,
2013-03-08 15:47:00,58.4,41.3,29.75,SW,216,5.0,15.0,53,0.00,,,0.01,Wunderground v.1.15,2013-03-08 22:47:00,
2013-03-08 15:52:00,58.0,42.8,29.75,WNW,288,8.0,15.0,57,0.00,,,0.01,Wunderground v.1.15,2013-03-08 22:52:00,
2013-03-08 15:57:00,57.0,44.9,29.75,SSE,156,5.0,14.0,64,0.00,,,0.01,Wunderground v.1.15,2013-03-08 22:57:00,
2013-03-08 16:02:00,57.1,43.8,29.74,ESE,116,5.0,14.0,61,0.00,,,0.01,Wunderground v.1.15,2013-03-08 23:02:00,
2013-03-08 16:07:00,57.8,44.0,29.75,South,173,5.0,14.0,60,0.00,,,0.01,Wunderground v.1.15,2013-03-08 23:07:00,
2013-03-08 16:12:00,57.3,42.6,29.75,WSW,257,10.0,14.0,58,0.00,,,0.01,Wunderground v.1.15,2013-03-08 23:12:00,
2013-03-08 16:18:00,57.4,40.9,29.75,South,181,1.0,12.0,54,0.00,,,0.01,Wunderground v.1.15,2013-03-08 23:18:00,
2013-03-08 16:23:00,58.5,41.4,29.74,WSW,238,3.0,12.0,53,0.00,,,0.01,Wunderground v.1.15,2013-03-08 23:23:00,
2013-03-08 16:28:00,59.2,42.6,29.75,SSW,204,1.0,6.0,54,0.00,,,0.01,Wunderground v.1.15,2013-03-08 23:28:00,
2013-03-08 16:33:00,59.4,41.8,29.75,SSE,164,5.0,9.0,52,0.00,,,0.01,Wunderground v.1.15,2013-03-08 23:33:00,
2013-03-08 16:38:00,58.6,41.0,29.75,WSW,252,3.0,15.0,52,0.00,,,0.01,Wunderground v.1.15,2013-03-08 23:38:00,
2013-03-08 16:43:00,58.0,41.4,29.75,West,275,4.0,15.0,54,0.00,,,0.01,Wunderground v.1.15,2013-03-08 23:43:00,
2013-03-08 16:49:00,57.4,39.9,29.76,WNW,296,10.0,12.0,52,0.00,,,0.01,Wunderground v.1.15,2013-03-08 23:49:00,
2013-03-08 16:54:00,56.6,41.1,29.76,West,263,9.0,9.0,56,0.00,,,0.01,Wunderground v.1.15,2013-03-08 23:54:00,
2013-03-08 16:59:00,55.5,42.7,29.77,WSW,249,8.0,12.0,62,0.00,,,0.02,Wunderground v.1.15,2013-03-08 23:59:00,
2013-03-08 17:04:00,55.5,42.3,29.77,WSW,238,5.0,7.0,61,0.00,,,0.02,Wunderground v.1.15,2013-03-09 00:04:00,
2013-03-08 17:09:00,55.8,42.1,29.77,WSW,256,5.0,8.0,60,0.00,,,0.02,Wunderground v.1.15,2013-03-09 00:09:00,
2013-03-08 17:14:00,56.4,40.9,29.77,West,259,1.0,4.0,56,0.00,,,0.02,Wunderground v.1.15,2013-03-09 00:14:00,
2013-03-08 17:20:00,56.5,40.5,29.77,WSW,245,3.0,8.0,55,0.00,,,0.02,Wunderground v.1.15,2013-03-09 00:20:00,
2013-03-08 17:25:00,56.5,40.0,29.77,South,175,4.0,8.0,54,0.00,,,0.02,Wunderground v.1.15,2013-03-09 00:25:00,
2013-03-08 17:30:00,56.5,38.6,29.78,WSW,250,9.0,16.0,51,0.00,,,0.02,Wunderground v.1.15,2013-03-09 00:30:00,
2013-03-08 17:35:00,55.8,39.4,29.78,West,279,9.0,10.0,54,0.00,,,0.02,Wunderground v.1.15,2013-03-09 00:35:00,
2013-03-08 17:40:00,55.8,38.4,29.78,South,190,1.0,14.0,52,0.00,,,0.02,Wunderground v.1.15,2013-03-09 00:40:00,
2013-03-08 17:45:00,55.4,36.0,29.78,SSE,157,6.0,8.0,48,0.00,,,0.02,Wunderground v.1.15,2013-03-09 00:45:00,
2013-03-08 17:51:00,55.1,37.8,29.79,WSW,256,7.0,12.0,52,0.00,,,0.02,Wunderground v.1.15,2013-03-09 00:51:00,
2013-03-08 17:56:00,54.9,38.1,29.79,SW,225,8.0,12.0,53,0.00,,,0.02,Wunderground v.1.15,2013-03-09 00:56:00,
2013-03-08 18:01:00,54.6,38.3,29.79,South,175,10.0,18.0,54,0.00,,,0.02,Wunderground v.1.15,2013-03-09 01:01:00,
2013-03-08 18:06:00,54.2,38.8,29.80,South,178,8.0,8.0,56,0.00,,,0.02,Wunderground v.1.15,2013-03-09 01:06:00,
2013-03-08 18:11:00,54.0,38.2,29.80,WSW,242,8.0,9.0,55,0.00,,,0.02,Wunderground v.1.15,2013-03-09 01:11:00,
2013-03-08 18:16:00,53.9,38.1,29.80,West,264,8.0,11.0,55,0.00,,,0.02,Wunderground v.1.15,2013-03-09 01:16:00,
2013-03-08 18:22:00,53.9,38.1,29.80,SSE,165,5.0,11.0,55,0.00,,,0.02,Wunderground v.1.15,2013-03-09 01:22:00,
2013-03-08 18:27:00,53.7,37.9,29.80,South,190,3.0,10.0,55,0.00,,,0.02,Wunderground v.1.15,2013-03-09 01:27:00,
2013-03-08 18:32:00,53.8,38.0,29.80,WSW,257,9.0,14.0,55,0.00,,,0.02,Wunderground v.1.15,2013-03-09 01:32:00,
2013-03-08 18:37:00,53.6,37.8,29.80,SSE,153,6.0,12.0,55,0.00,,,0.02,Wunderground v.1.15,2013-03-09 01:37:00,
2013-03-08 18:42:00,53.5,37.3,29.80,WSW,251,8.0,12.0,54,0.00,,,0.02,Wunderground v.1.15,2013-03-09 01:42:00,
2013-03-08 18:47:00,53.2,37.4,29.80,SW,227,8.0,9.0,55,0.00,,,0.02,Wunderground v.1.15,2013-03-09 01:47:00,
2013-03-08 18:52:00,53.0,36.8,29.80,West,259,2.0,12.0,54,0.00,,,0.02,Wunderground v.1.15,2013-03-09 01:52:00,
2013-03-08 18:57:00,52.9,37.2,29.80,SSE,166,4.0,7.0,55,0.00,,,0.02,Wunderground v.1.15,2013-03-09 01:57:00,
2013-03-08 19:03:00,52.9,35.7,29.80,South,186,5.0,8.0,52,0.00,,,0.02,Wunderground v.1.15,2013-03-09 02:03:00,
2013-03-08 19:08:00,53.2,36.0,29.81,WSW,251,13.0,13.0,52,0.00,,,0.02,Wunderground v.1.15,2013-03-09 02:08:00,
2013-03-08 19:13:00,53.4,36.2,29.81,SW,230,7.0,13.0,52,0.00,,,0.02,Wunderground v.1.15,2013-03-09 02:13:00,
2013-03-08 19:18:00,53.4,35.2,29.82,South,186,8.0,15.0,50,0.00,,,0.02,Wunderground v.1.15,2013-03-09 02:18:00,
2013-03-08 19:23:00,53.3,34.1,29.82,SSE,161,9.0,15.0,48,0.00,,,0.02,Wunderground v.1.15,2013-03-09 02:23:00,
2013-03-08 19:28:00,53.1,34.9,29.82,SW,217,8.0,9.0,50,0.00,,,0.02,Wunderground v.1.15,2013-03-09 02:28:00,
2013-03-08 19:33:00,53.1,34.9,29.82,West,261,6.0,12.0,50,0.00,,,0.02,Wunderground v.1.15,2013-03-09 02:33:00,
2013-03-08 19:38:00,53.1,34.9,29.83,WNW,294,14.0,14.0,50,0.00,,,0.02,Wunderground v.1.15,2013-03-09 02:38:00,
2013-03-08 19:43:00,53.2,35.0,29.83,WNW,295,4.0,15.0,50,0.00,,,0.02,Wunderground v.1.15,2013-03-09 02:43:00,
2013-03-08 19:48:00,52.5,36.8,29.84,SW,236,16.0,21.0,55,0.00,,,0.02,Wunderground v.1.15,2013-03-09 02:48:00,
2013-03-08 19:54:00,50.4,37.0,29.85,WSW,248,19.0,21.0,60,0.00,,,0.03,Wunderground v.1.15,2013-03-09 02:54:00,
2013-03-08 19:59:00,49.0,38.5,29.84,WSW,257,8.0,19.0,67,0.00,,,0.03,Wunderground v.1.15,2013-03-09 02:59:00,
2013-03-08 20:04:00,48.0,37.9,29.84,SW,235,6.0,19.0,68,0.00,,,0.03,Wunderground v.1.15,2013-03-09 03:04:00,
2013-03-08 20:09:00,48.1,37.7,29.84,WSW,247,8.0,11.0,67,0.00,,,0.03,Wunderground v.1.15,2013-03-09 03:09:00,
2013-03-08 20:14:00,49.0,36.9,29.84,SW,236,8.0,8.0,63,0.00,,,0.03,Wunderground v.1.15,2013-03-09 03:14:00,
2013-03-08 20:19:00,49.4,38.1,29.85,West,268,3.0,8.0,65,0.00,,,0.03,Wunderground v.1.15,2013-03-09 03:19:00,
2013-03-08 20:24:00,49.4,38.1,29.85,WSW,247,5.0,5.0,65,0.00,,,0.03,Wunderground v.1.15,2013-03-09 03:24:00,
2013-03-08 20:30:00,49.7,38.4,29.86,WSW,254,8.0,13.0,65,0.00,,,0.03,Wunderground v.1.15,2013-03-09 03:30:00,
2013-03-08 20:35:00,49.9,37.0,29.86,West,269,6.0,7.0,61,0.00,,,0.03,Wunderground v.1.15,2013-03-09 03:35:00,
2013-03-08 20:40:00,49.5,36.2,29.86,WSW,248,3.0,8.0,60,0.00,,,0.03,Wunderground v.1.15,2013-03-09 03:40:00,
2013-03-08 20:45:00,49.1,37.4,29.87,WSW,243,7.0,8.0,64,0.00,,,0.03,Wunderground v.1.15,2013-03-09 03:45:00,
2013-03-08 20:50:00,48.8,37.9,29.87,West,262,8.0,9.0,66,0.00,,,0.03,Wunderground v.1.15,2013-03-09 03:50:00,
2013-03-08 20:55:00,48.3,37.8,29.87,West,268,5.0,6.0,67,0.00,,,0.03,Wunderground v.1.15,2013-03-09 03:55:00,
2013-03-08 21:01:00,48.1,37.7,29.87,West,273,1.0,7.0,67,0.00,,,0.03,Wunderground v.1.15,2013-03-09 04:01:00,
2013-03-08 21:06:00,47.9,37.8,29.87,West,260,2.0,3.0,68,0.00,,,0.03,Wunderground v.1.15,2013-03-09 04:06:00,
2013-03-08 21:11:00,48.3,36.3,29.88,WSW,258,6.0,12.0,63,0.00,,,0.03,Wunderground v.1.15,2013-03-09 04:11:00,
2013-03-08 21:16:00,48.6,35.3,29.88,WSW,255,8.0,11.0,60,0.00,,,0.03,Wunderground v.1.15,2013-03-09 04:16:00,
2013-03-08 21:21:00,48.8,35.5,29.89,West,272,12.0,13.0,60,0.00,,,0.03,Wunderground v.1.15,2013-03-09 04:21:00,
2013-03-08 21:27:00,48.3,37.1,29.90,West,281,5.0,12.0,65,0.00,,,0.04,Wunderground v.1.15,2013-03-09 04:27:00,
2013-03-08 21:32:00,47.5,37.8,29.90,WNW,296,10.0,12.0,69,0.00,,,0.04,Wunderground v.1.15,2013-03-09 04:32:00,
2013-03-08 21:37:00,46.9,38.3,29.91,West,278,9.0,10.0,72,0.00,,,0.04,Wunderground v.1.15,2013-03-09 04:37:00,
2013-03-08 21:42:00,46.3,39.1,29.91,NW,304,2.0,10.0,76,0.00,,,0.04,Wunderground v.1.15,2013-03-09 04:42:00,
2013-03-08 21:45:00,45.0,39.2,29.91,NW,304,2.0,4.0,80,0.00,,,0.04,Wunderground v.1.15,2013-03-09 04:45:00,
2013-03-08 21:46:00,44.9,39.1,29.91,NW,311,0.0,4.0,80,0.00,,,0.04,Wunderground v.1.15,2013-03-09 04:46:00,
2013-03-08 21:47:00,45.8,39.3,29.91,West,281,5.0,7.0,78,0.00,,,0.04,Wunderground v.1.15,2013-03-09 04:47:00,
2013-03-08 21:48:00,44.9,39.4,29.91,West,275,3.0,4.0,81,0.00,,,0.04,Wunderground v.1.15,2013-03-09 04:48:00,
2013-03-08 21:49:00,44.8,39.3,29.91,NW,313,0.0,4.0,81,0.00,,,0.04,Wunderground v.1.15,2013-03-09 04:49:00,
2013-03-08 21:50:00,44.8,39.3,29.91,NW,312,4.0,4.0,81,0.00,,,0.04,Wunderground v.1.15,2013-03-09 04:50:00,
2013-03-08 21:51:00,44.7,39.2,29.91,West,271,3.0,4.0,81,0.00,,,0.04,Wunderground v.1.15,2013-03-09 04:51:00,
2013-03-08 21:52:00,45.4,39.6,29.91,WNW,291,3.0,7.0,80,0.00,,,0.04,Wunderground v.1.15,2013-03-09 04:52:00,
2013-03-08 21:53:00,44.6,39.1,29.91,WNW,302,0.0,4.0,81,0.00,,,0.04,Wunderground v.1.15,2013-03-09 04:53:00,
2013-03-08 21:54:00,44.6,39.4,29.91,WNW,301,1.0,4.0,82,0.00,,,0.04,Wunderground v.1.15,2013-03-09 04:54:00,
2013-03-08 21:55:00,44.5,39.0,29.91,WNW,301,0.0,4.0,81,0.00,,,0.04,Wunderground v.1.15,2013-03-09 04:55:00,
2013-03-08 21:56:00,44.5,39.3,29.91,WNW,301,0.0,4.0,82,0.00,,,0.04,Wunderground v.1.15,2013-03-09 04:56:00,
2013-03-08 21:57:00,44.4,39.2,29.91,WNW,301,0.0,4.0,82,0.00,,,0.04,Wunderground v.1.15,2013-03-09 04:57:00,
2013-03-08 21:58:00,45.0,39.5,29.91,WNW,292,1.0,4.0,81,0.00,,,0.04,Wunderground v.1.15,2013-03-09 04:58:00,
2013-03-08 21:59:00,44.4,39.2,29.91,WNW,301,0.0,4.0,82,0.00,,,0.04,Wunderground v.1.15,2013-03-09 04:59:00,
2013-03-08 22:00:00,44.3,39.2,29.91,WNW,301,0.0,1.0,82,0.00,,,0.04,Wunderground v.1.15,2013-03-09 05:00:00,
2013-03-08 22:01:00,44.3,39.2,29.91,WNW,301,1.0,1.0,82,0.00,,,0.04,Wunderground v.1.15,2013-03-09 05:01:00,
2013-03-08 22:02:00,44.2,39.1,29.91,WNW,301,0.0,1.0,82,0.00,,,0.04,Wunderground v.1.15,2013-03-09 05:02:00,
2013-03-08 22:03:00,44.2,39.1,29.91,WNW,301,0.0,1.0,82,0.00,,,0.04,Wunderground v.1.15,2013-03-09 05:03:00,
2013-03-08 22:04:00,44.2,39.1,29.91,WNW,301,1.0,1.0,82,0.00,,,0.04,Wunderground v.1.15,2013-03-09 05:04:00,
2013-03-08 22:05:00,44.2,39.1,29.91,WNW,301,0.0,1.0,82,0.00,,,0.04,Wunderground v.1.15,2013-03-09 05:05:00,
2013-03-08 22:06:00,44.2,39.1,29.91,WNW,301,0.0,1.0,82,0.00,,,0.04,Wunderground v.1.15,2013-03-09 05:06:00,
2013-03-08 22:07:00,44.1,39.0,29.91,WNW,301,0.0,1.0,82,0.00,,,0.04,Wunderground v.1.15,2013-03-09 05:07:00,
2013-03-08 22:08:00,44.0,38.9,29.91,WNW,301,0.0,1.0,82,0.00,,,0.04,Wunderground v.1.15,2013-03-09 05:08:00,
2013-03-08 22:09:00,44.0,38.9,29.91,WNW,301,0.0,2.0,82,0.00,,,0.04,Wunderground v.1.15,2013-03-09 05:09:00,
2013-03-08 22:11:00,43.9,38.8,29.91,WNW,301,0.0,0.0,82,0.00,,,0.04,Wunderground v.1.15,2013-03-09 05:11:00,
2013-03-08 22:12:00,43.8,39.0,29.91,WNW,301,0.0,0.0,83,0.00,,,0.04,Wunderground v.1.15,2013-03-09 05:12:00,
2013-03-08 22:14:00,44.3,39.2,29.91,WNW,301,0.0,1.0,82,0.00,,,0.04,Wunderground v.1.15,2013-03-09 05:14:00,
2013-03-08 22:20:00,44.1,39.0,29.91,WNW,301,0.0,1.0,82,0.00,,,0.04,Wunderground v.1.15,2013-03-09 05:20:00,
2013-03-08 22:26:00,43.8,38.7,29.91,WNW,301,0.0,0.0,82,0.00,,,0.04,Wunderground v.1.15,2013-03-09 05:26:00,
2013-03-08 22:31:00,43.4,38.6,29.91,WNW,301,0.0,1.0,83,0.00,,,0.04,Wunderground v.1.15,2013-03-09 05:31:00,
2013-03-08 22:36:00,43.3,38.5,29.91,WNW,301,0.0,0.0,83,0.00,,,0.04,Wunderground v.1.15,2013-03-09 05:36:00,
2013-03-08 22:41:00,43.1,38.6,29.92,WNW,301,0.0,0.0,84,0.00,,,0.04,Wunderground v.1.15,2013-03-09 05:41:00,
2013-03-08 22:46:00,43.0,38.5,29.92,East,97,0.0,5.0,84,0.00,,,0.04,Wunderground v.1.15,2013-03-09 05:46:00,
2013-03-08 22:52:00,42.9,38.7,29.92,SE,126,0.0,5.0,85,0.00,,,0.04,Wunderground v.1.15,2013-03-09 05:52:00,
2013-03-08 22:57:00,42.7,38.5,29.92,SE,126,0.0,1.0,85,0.00,,,0.04,Wunderground v.1.15,2013-03-09 05:57:00,
2013-03-08 23:02:00,42.5,38.6,29.91,ESE,107,0.0,1.0,86,0.00,,,0.04,Wunderground v.1.15,2013-03-09 06:02:00,
2013-03-08 23:07:00,42.4,38.5,29.92,SSE,167,1.0,2.0,86,0.00,,,0.04,Wunderground v.1.15,2013-03-09 06:07:00,
2013-03-08 23:12:00,43.1,38.6,29.92,South,169,0.0,2.0,84,0.00,,,0.04,Wunderground v.1.15,2013-03-09 06:12:00,
2013-03-08 23:17:00,42.7,38.2,29.92,South,169,0.0,0.0,84,0.00,,,0.04,Wunderground v.1.15,2013-03-09 06:17:00,
2013-03-08 23:22:00,42.5,38.3,29.92,South,170,0.0,2.0,85,0.00,,,0.04,Wunderground v.1.15,2013-03-09 06:22:00,
2013-03-08 23:28:00,43.4,38.0,29.92,South,170,0.0,0.0,81,0.00,,,0.04,Wunderground v.1.15,2013-03-09 06:28:00,
2013-03-08 23:33:00,42.6,37.8,29.92,WSW,242,0.0,3.0,83,0.00,,,0.04,Wunderground v.1.15,2013-03-09 06:33:00,
2013-03-08 23:38:00,42.9,38.1,29.92,WSW,248,0.0,1.0,83,0.00,,,0.04,Wunderground v.1.15,2013-03-09 06:38:00,
2013-03-08 23:43:00,42.6,37.8,29.92,SW,229,0.0,1.0,83,0.00,,,0.04,Wunderground v.1.15,2013-03-09 06:43:00,
2013-03-08 23:48:00,44.3,36.2,29.92,South,186,0.0,3.0,73,0.00,,,0.04,Wunderground v.1.15,2013-03-09 06:48:00,
2013-03-08 23:53:00,44.7,36.6,29.92,SW,226,0.0,3.0,73,0.00,,,0.04,Wunderground v.1.15,2013-03-09 06:53:00,
2013-03-08 23:59:00,44.5,35.3,29.93,West,263,0.0,5.0,70,0.00,,,0.04,Wunderground v.1.15,2013-03-09 06:59:00,